SCP
0 0 0 0 0 0 0 0 0 0 0 0 0 0 0 0 0 0 0 0 0 0 0 0 0 0 0 0 0 0 0 0 0 0 0 0 0 0 0 0 0 0 0 0
0 0 0 0 0 0 0 0 0 0 0 0 0 0 0 0 0 0 0 0 0 0 0 0 0 0 0 0 0 0 0 0 0 0 0 0 0 0 0 0 0 0 0 0
0 0 0 0 0 0 0 0 0 0 0 0 0 0 0 0 0 0 0 0 0 0 0 0 0 0 0 0 0 0 0 0 0 0 0 0 0 0 0 0 0 0 0 0
0 0 0 0 0 0 0 0 0 0 0 0 0 0 0 0 0 0 0 0 0 0 0 0 0 0 0 0 0 0 0 0 0 0 0 0 0 0 0 0 0 0 0 0
0 0 0 0 0 0 0 0 0 0 0 0 0 0 0 0 0 0 0 0 0 0 0 0 0 0 0 0 0 0 0 0 0 0 0 0 0 0 0 0 0 0 0 0
0 0 0 0 0 0 0 0 0 0 0 0 0 0 0 0 0 0 0 0 0 0 0 0 0 0 0 0 0 0 0 0 0 0 0 0 0 0 0 0 0 0 0 0
0 0 0 0 0 0 0 0 0 0 0 0 0 0 0 0 0 0 0 0 0 0 0 0 0 0 0 0 0 0 0 0 0 0 0 0 0 0 0 0 0 0 0 0
0 0 0 0 0 0 0 0 0 0 0 0 0 0 0 0 0 0 0 0 0 0 0 0 0 0 0 0 0 0 0 0 0 0 0 0 0 0 0 0 0 0 0 0
0 0 0 0 0 0 0 0 0 0 0 0 0 0 0 0 0 0 0 0 0 0 0 0 0 0 0 0 0 0 0 0 0 0 0 0 0 0 0 0 0 0 0 0
0 0 0 0 0 0 0 0 0 0 0 0 0 0 0 0 0 0 0 0 0 0 0 0 0 0 0 0 0 0 0 0 0 0 0 0 0 0 0 0 0 0 0 0
0 0 0 0 0 0 0 0 0 0 0 0 0 0 0 0 0 0 0 0 0 0 0 0 0 0 0 0 0 0 0 0 0 0 0 0 0 0 0 0 0 0 0 0
0 0 0 0 0 0 0 0 0 0 0 0 0 0 0 0 0 0 0 0 0 0 0 0 0 0 0 0 0 0 0 0 0 0 0 0 0 0 0 0 0 0 0 0
0 0 0 0 0 0 0 0 0 0 0 0 0 0 0 0 0 0 0 0 0 0 0 0 0 0 0 0 0 0 0 0 0 0 0 0 0 0 0 0 0 0 0 0
0 0 0 0 0 0 0 0 0 0 0 0 0 0 0 0 0 0 0 0 0 0 0 0 0 0 0 0 0 0 0 0 0 0 0 0 0 0 0 0 0 0 0 0
0 0 0 0 0 0 0 0 0 0 0 0 0 0 0 0 0 0 0 0 0 0 0 0 0 0 0 0 0 0 0 0 0 0 0 0 0 0 0 0 0 0 0 0
0 0 0 0 0 0 0 0 0 0 0 0 0 0 0 0 0 0 0 0 0 0 0 0 0 0 0 0 0 0 0 0 0 0 0 0 0 0 0 0 0 0 0 0
0 0 0 0 0 0 0 0 0 0 0 0 0 0 0 0 0 0 0 0 0 0 0 0 0 0 0 0 0 0 0 0 0 0 0 0 0 0 0 0 0 0 0 0
0 0 0 0 0 0 0 0 0 0 0 0 0 0 0 0 0 0 0 0 0 0 0 0 0 0 0 0 0 0 0 0 0 0 0 0 0 0 0 0 0 0 0 0
0 0 0 0 0 0 0 0 0 0 0 0 0 0 0 0 0 0 0 0 0 0 0 0 0 0 0 0 0 0 0 0 0 0 0 0 0 0 0 0 0 0 0 0
0 0 0 0 0 0 0 0 0 0 0 0 0 0 0 0 0 0 0 0 0 0 0 0 0 0 0 0 0 0 0 0 0 0 0 0 0 0 0 0 0 0 0 0
0 0 0 0 0 0 0 0 0 0 0 0 0 0 0 0 0 0 0 0 0 0 0 0 0 0 0 0 0 0 0 0 0 0 0 0 0 0 0 0 0 0 0 0
0 0 0 0 0 0 0 0 0 0 0 0 0 0 0 0 0 0 0 0 0 0 0 0 0 0 0 0 0 0 0 0 0 0 0 0 0 0 0 0 0 0 0 0
0 0 0 0 0 0 0 0 0 0 0 0 0 0 0 0 0 0 0 0 0 0 0 0 0 0 0 0 0 0 0 0 0 0 0 0 0 0 0 0 0 0 0 0
0 0 0 0 0 0 0 0 0 0 0 0 0 0 0 0 0 0 0 0 0 0 0 0 0 0 0 0 0 0 0 0 0 0 0 0 0 0 0 0 0 0 0 0
0 0 0 0 0 0 0 0 0 0 0 0 0 0 0 0 0 0 0 0 0 0 0 0 0 0 0 0 0 0 0 0 0 0 0 0 0 0 0 0 0 0 0 0
0 0 0 0 0 0 0 0 0 0 0 0 0 0 0 0 0 0 0 0 0 0 0 0 0 0 0 0 0 0 0 0 0 0 0 0 0 0 0 0 0 0 0 0
0 0 0 0 0 0 0 0 0 0 0 0 0 0 0 0 0 0 0 0 0 0 0 0 0 0 0 0 0 0 0 0 0 0 0 0 0 0 0 0 0 0 0 0
Wind_Speed
13 5 11 16 22 26 27 23 17 13 16 15 17 16 14 12 12 14 15 16 17 16 14 14 14 15 15 15 14 14 13 13 12 10 9 8 8 7 6 6 5 5 5 4
10 10 10 10 19 25 25 23 21 17 17 9 13 11 11 12 14 16 16 16 16 14 13 14 15 15 15 15 14 14 14 14 11 9 9 9 8 8 7 7 6 6 6 6
12 8 5 20 20 20 17 15 17 23 17 7 9 14 16 15 16 17 16 14 14 13 13 12 13 13 14 14 12 11 11 10 8 9 10 10 9 9 9 8 7 7 7 7
7 11 21 12 9 19 21 18 16 8 5 11 13 10 8 11 14 13 12 11 11 10 10 10 10 10 10 9 9 10 11 10 10 10 10 10 10 10 9 7 7 7 7 7
9 12 12 3 6 12 15 15 15 14 8 6 6 5 4 7 9 10 10 10 10 9 9 8 9 9 8 8 9 10 11 11 11 11 11 11 11 10 8 7 7 7 6 7
9 11 15 6 8 6 7 8 8 14 11 10 11 8 8 10 10 9 8 8 8 8 7 8 8 8 9 9 9 11 11 10 9 10 11 11 11 9 7 7 6 6 6 6
11 11 9 4 7 12 11 9 6 10 11 14 14 7 3 10 10 10 9 8 8 8 8 8 8 8 9 9 11 10 7 7 8 9 10 9 8 7 6 6 6 6 7 7
9 11 10 10 12 13 5 4 6 9 10 13 10 5 7 10 10 10 8 8 8 9 9 8 8 9 9 11 9 7 7 8 8 8 8 7 8 7 6 6 6 7 7 7
7 5 3 11 8 3 5 6 7 8 9 11 10 10 10 9 9 9 9 9 8 8 8 7 8 9 11 9 7 8 8 8 8 8 7 7 8 7 6 6 6 6 6 6
3 2 2 6 2 3 5 5 6 7 9 12 12 12 12 9 8 8 8 8 7 8 8 8 9 10 11 6 8 9 9 9 8 8 8 7 6 6 6 7 7 6 6 6
3 1 2 6 9 8 6 4 4 6 7 11 12 11 11 9 8 8 8 7 7 9 11 11 9 10 8 7 9 9 9 8 8 8 8 7 7 7 8 7 7 7 6 5
7 9 8 8 11 12 11 10 9 8 7 6 8 9 9 9 8 8 9 7 8 10 10 10 7 8 7 8 9 9 8 8 7 6 6 6 6 6 12 12 13 16 15 12
4 7 7 4 5 10 12 11 10 11 11 9 9 9 9 9 9 8 8 9 10 11 10 8 7 6 6 7 8 8 8 7 6 5 5 5 5 5 5 7 11 13 14 14
4 6 4 5 5 7 8 8 7 7 7 7 8 7 8 8 7 8 10 10 8 7 6 5 5 5 5 7 7 7 6 5 5 4 4 5 5 5 5 5 5 5 6 9
7 7 6 5 5 4 3 3 4 6 6 7 7 8 9 10 10 9 6 4 4 5 4 5 5 4 5 6 6 6 5 4 4 3 3 4 4 4 4 5 5 5 4 5
7 6 4 4 6 5 5 6 7 9 8 8 8 9 9 8 5 3 3 4 6 6 5 5 5 5 5 5 5 4 3 4 4 3 3 4 4 4 5 5 6 6 6 5
6 7 7 8 10 8 8 9 10 10 8 8 9 6 5 5 5 4 4 3 4 5 5 5 5 5 4 4 4 3 3 3 4 3 4 4 4 5 5 5 6 6 6 7
6 6 6 6 7 7 7 7 8 8 8 6 4 5 7 8 8 7 7 6 7 6 5 4 5 5 4 4 3 2 3 3 3 3 3 4 4 5 5 6 7 8 6 7
5 5 4 3 3 3 3 2 2 2 2 1 4 4 4 4 7 9 8 7 7 6 4 2 5 5 4 4 4 3 3 3 3 3 3 4 5 5 5 6 7 7 7 6
8 7 7 6 7 6 4 4 4 4 4 4 7 8 8 7 7 8 8 6 3 3 5 3 3 3 3 2 3 3 3 3 3 3 3 4 5 5 6 6 7 7 6 6
9 8 7 6 6 8 7 5 4 5 5 5 7 8 8 7 6 6 6 5 3 3 4 3 2 2 2 2 3 2 3 3 3 4 4 4 5 6 6 6 6 7 6 6
7 6 6 6 6 6 7 6 6 7 7 8 9 9 9 8 6 5 4 3 4 3 2 2 1 2 2 3 2 3 3 3 4 4 4 5 5 6 6 6 6 6 6 6
5 5 5 5 5 5 6 7 7 7 7 7 7 6 6 5 3 3 4 3 2 2 1 1 1 3 3 3 2 3 4 4 4 5 5 5 6 6 6 7 6 6 6 6
4 4 4 4 4 6 7 6 6 6 6 7 6 5 5 4 3 3 3 3 1 0 0 1 3 3 1 1 2 3 4 4 5 5 5 6 6 6 7 7 7 7 7 8
3 3 4 4 5 4 4 4 5 5 6 5 5 5 4 3 2 2 1 1 1 1 1 2 4 3 2 2 3 4 4 4 5 5 6 6 6 6 7 7 7 7 7 7
3 3 3 4 3 2 2 2 3 2 3 3 2 2 2 2 2 1 0 1 1 2 2 2 2 3 3 3 4 5 5 5 6 6 6 7 7 7 7 7 9 8 7 7
3 3 2 3 3 3 2 2 2 2 2 1 1 1 1 1 1 1 1 1 2 2 2 2 3 3 3 4 5 5 5 5 5 6 6 6 6 7 7 8 7 7 7 7
Wind_Direction
241 207 186 201 203 203 211 220 226 227 221 210 205 206 201 193 186 189 195 199 201 201 200 197 198 199 200 200 197 194 195 200 204 199 193 186 184 186 192 204 216 223 231 239
224 217 206 220 214 207 213 222 232 242 241 218 206 198 195 189 187 194 200 201 201 201 198 199 200 201 202 203 199 196 201 206 206 196 189 190 189 188 194 203 211 222 231 237
216 178 193 236 213 201 205 211 215 232 239 146 180 197 200 194 195 200 201 198 196 197 197 199 200 200 202 203 196 194 202 205 198 194 197 197 192 192 199 203 209 221 230 234
172 166 220 241 182 196 211 217 211 211 194 183 202 200 199 196 196 200 196 191 191 189 190 192 192 195 196 191 186 193 205 208 203 201 203 197 194 201 202 201 209 221 228 235
177 209 234 227 197 183 192 223 212 213 200 149 113 116 213 207 201 195 189 184 181 179 175 175 180 179 173 178 185 197 208 211 206 201 200 197 201 204 200 202 212 220 226 231
183 205 225 207 162 165 146 233 205 203 192 152 149 203 222 181 185 184 178 174 167 160 160 171 173 163 169 182 189 205 211 210 201 196 198 201 203 199 197 203 217 223 233 234
201 220 237 129 148 148 177 223 175 184 176 167 191 215 138 155 171 175 174 173 165 166 177 185 171 165 182 191 206 211 197 187 187 191 195 196 191 189 190 204 220 230 242 244
202 216 224 144 158 180 175 113 151 167 173 183 189 147 147 162 168 173 175 176 175 182 195 190 172 177 195 210 210 182 172 179 183 182 181 178 179 184 192 205 222 234 242 248
199 212 81 165 177 154 145 161 176 176 182 178 170 172 170 173 177 182 188 190 188 193 201 196 187 192 208 216 179 165 173 181 178 173 177 175 182 188 195 206 226 236 236 245
192 214 180 182 125 175 194 189 182 180 172 173 176 179 181 181 185 192 196 197 191 192 209 217 205 206 219 197 162 169 182 184 177 179 185 185 195 199 204 209 220 231 236 243
181 116 129 223 222 207 199 194 174 177 181 185 182 183 186 189 195 200 204 201 193 202 215 224 210 209 208 180 168 182 188 185 186 190 193 193 203 211 214 222 225 231 236 238
190 185 178 204 214 202 201 206 196 185 189 193 192 193 191 199 203 204 207 201 201 210 219 224 209 206 192 177 178 183 188 190 190 191 192 200 208 225 235 239 244 247 248 248
152 170 185 198 199 190 202 207 197 197 200 199 203 204 203 208 209 208 209 205 209 213 216 215 203 199 175 170 176 186 193 187 187 192 194 201 209 222 239 238 248 258 263 269
138 135 178 217 211 197 202 206 195 200 209 206 206 203 209 216 214 210 215 214 210 205 201 191 186 181 155 163 171 177 186 180 186 193 200 207 215 224 233 243 250 249 257 267
199 193 197 203 207 202 195 178 184 213 217 219 210 207 209 216 221 219 208 175 160 167 167 161 162 147 139 151 158 164 176 177 184 194 204 214 222 229 234 238 247 255 262 267
202 220 241 242 234 219 195 196 212 229 226 225 220 218 217 216 206 152 127 146 164 176 162 150 143 133 139 144 149 154 175 183 185 199 211 220 226 233 238 242 246 248 251 257
168 204 215 231 240 235 219 215 221 233 233 231 231 218 187 162 146 139 119 99 101 108 120 127 122 120 131 142 156 162 173 182 191 207 220 228 234 240 245 248 250 253 253 253
219 222 210 216 231 236 235 222 224 232 236 238 215 174 173 177 181 158 137 119 107 96 93 100 122 127 132 143 159 167 175 188 202 219 230 236 242 246 249 251 255 257 260 264
8 360 354 339 326 289 283 278 257 261 282 191 158 154 137 127 126 130 135 137 138 135 132 132 138 128 140 161 166 171 182 196 210 224 236 241 246 248 248 251 255 257 260 259
20 18 27 36 32 27 24 25 40 52 46 87 109 108 104 103 115 126 130 120 96 96 125 132 124 134 143 174 166 172 190 209 228 239 245 249 253 255 254 254 255 256 254 253
13 17 28 39 44 36 29 29 58 70 62 78 106 115 114 110 111 122 131 123 110 113 129 139 143 145 155 164 179 188 202 221 236 246 252 256 259 261 260 259 258 256 254 253
8 19 34 45 58 48 31 38 60 76 79 82 91 105 112 113 110 95 70 96 126 139 143 146 157 186 197 196 201 208 220 231 239 244 248 252 256 260 262 261 259 257 255 253
14 30 46 51 62 67 55 48 54 70 79 87 97 107 110 108 108 117 115 111 129 154 152 156 239 240 232 218 223 231 237 241 245 247 249 253 256 259 262 263 261 260 259 257
32 45 56 60 69 75 67 53 56 65 72 74 70 75 93 101 80 53 78 107 113 112 81 268 270 276 261 238 246 251 253 255 257 259 260 260 260 260 260 261 262 261 260 260
41 54 66 78 77 74 83 84 77 74 75 73 69 59 49 48 83 95 76 63 355 322 300 303 306 319 315 271 264 263 263 262 264 267 265 264 263 263 263 262 261 263 263 261
45 58 59 63 71 81 87 90 88 84 89 89 71 48 39 39 55 63 29 318 297 295 291 292 294 291 276 270 267 267 268 269 268 265 264 267 268 267 266 265 266 264 264 263
69 73 75 72 55 47 58 76 88 83 72 90 95 43 4 355 346 330 309 296 291 287 284 281 277 272 270 269 270 270 269 268 267 267 268 267 267 267 268 269 269 268 267 266